Delta Virtual Airport Information Service

San Francisco International Airport

ICAO: KSFO Country: United States
Latitude: 37.619 Longitude: -122.374
Latest Arrival : DAL1064 (1C) (KJFK-KSFO) Latest Departure : ASA1022 (KSFO-KJFK)


WX CaptureLIVE
Data provided by noaa.gov | Fetched at 00:56:29

METAR : KSFO 120456Z 30009KT 10SM FEW005 12/09 A2992 RMK AO2 SLP132 T01220089

TAF : KSFO 120308Z 1203/1306 30017KT P6SM FEW010 FM120500 30011KT P6SM SKC FM120700 26006KT P6SM FEW015 FM121100 VRB03KT 5SM BR FEW007 TEMPO 1212/1215 BKN007 FM121900 23008KT P6SM SKC FM130000 27014KT P6SM SKC


Runway Data for KSFO
Data provided by openaviationdata.com

Runway ID Mag Var Hdg Length Elevation Surface ILS Freq ILS Id ILS Slope
01L 15 12° 7506 ft 13 ft Asphalt -- -- --
01R 15 12° 8654 ft 13 ft Asphalt -- -- --
10L 15 102° 11861 ft 13 ft Asphalt -- -- --
10R 15 102° 10594 ft 13 ft Asphalt -- -- --
19L 15 192° 8654 ft 13 ft Asphalt 108.9 ISIA 2
19R 15 192° 7506 ft 13 ft Asphalt -- -- --
28L 15 282° 10594 ft 13 ft Asphalt 109.55 ISFO 3
28R 15 282° 11861 ft 13 ft Asphalt 111.7 IGWQ 3

San Francisco International Airport, United States
Use only for reference purposes



Not for navigational purposes.